COSMOS 2251 DEB, 40228

Orbit data source: Space-Track

COSMOS 2251 DEB, 40228 is space debris in LEO originally from a launch on Wed, 16 Jun 1993 UTC launched from the Plesetsk Missile And Space Complex (PKMTR). The debris from Iridium 33, an American commercial communications satellite, has been tracked extensively since its accidental collision with the defunct Russian satellite Cosmos 2251 in 2009. This event, occurring at high speed in low Earth orbit (LEO), generated thousands of pieces of space debris, significantly increasing the risk of further collisions. The Iridium 33 debris cloud has impacted space traffic management and orbital debris mitigation strategies, making it a subject of ongoing study in space situational awareness.

Loading next visibility...
Identifier
40228, 1993-036BVH
Orbit
LEO
Country
Flag of CISCIS
Related business
Manufacturer
Unknown
Mission
Spacecraft
Bus & Motor
Unknown
Mass
Unknown
Launch date (UTC)
1993-06-16 (32 years ago)
Launch vehicle
Unknown
Launch site
Plesetsk Missile And Space Complex (PKMTR)
Object type
Payload
Rocket body
Debris
Shape & HBR
Unknown shape, 0.1 m
Radar Cross Section
Small (<0.1 m²)

Expand to show TLE details & history
Last TLE update: 2 days ago

TLE from 2 days ago
0 COSMOS 2251 DEB
1 40228U 93036BVH 25291.47492802  .00001231  00000-0  39128-3 0  9995
2 40228  74.0570   2.6782 0022162  79.4359 300.2425 14.40822209581255
Epoch: 2025-10-18T11:23Z
TLE epoch observation values (Epoch: 2025-10-18T11:23:53.780Z)
Latitude
18.68418°
Longitude
170.01273°
Altitude
749.946 km
Speed
7.486 km/s
True Right ascension
00h 32m 46s
True Declination
18° 34' 48"
Sunlit
Object was in full shadow at epoch
Visualization orbit readout
Latitude
Unknown
Longitude
Unknown
Altitude
Unknown
Speed
Unknown
Apparent Right ascension
Unknown
Apparent Declination
Unknown
Sunlit
N/A
Visualization observer readout
Local Sidereal Time
21:57:28
Azimuth
Unknown
Elevation
Unknown
Doppler factor
Unknown
Orbital elements
Apogee altitude
769.205 km
Perigee altitude
737.595 km
Semi-major axis
7,131.537 km
Eccentricity
0.00222
Inclination
74.057°
RAAN
2.6782°
Arg. of periapsis
79.4359°
True anomaly
300.0228°
Mean anomaly
300.2425°
Eccentric anomaly
300.13268°
Mean motion
3.60386 °/min
Orbital period
99.89 mins
BSTAR
0.00039128
Loading maneuver chart data...
Computing Atmospheric mass density...

Documentation

Showing up to 5 results
|